Riverton, WY

5:20 AM MST on February 21, 2017 (GMT -0700)
Thermopolis

Weather History for KTBX - November, 2012

Change the Weather History Date:

Monday, November 5, 2012

  Actual Average (KRIW) Record (KRIW)
Temperature  
Mean Temperature 46 °F -  
Max Temperature 55 °F 49 °F 65 °F (2004)
Min Temperature 37 °F 19 °F 2 °F (2003)
Degree Days  
Heating Degree Days 19    
Moisture  
Dew Point 26 °F    
Average Humidity 47    
Maximum Humidity 75    
Minimum Humidity 26    
Precipitation  
Precipitation 0.00 in - - ()
Sea Level Pressure  
Sea Level Pressure 30.35 in    
Wind  
Wind Speed 8 mph ()    
Max Wind Speed 21 mph    
Max Gust Speed 22 mph    
Visibility 10.0 miles    
Events      
Averages and records for this station are not official NWS values.
T = Trace of Precipitation, MM = Missing Value Source: Averaged Metar Reports

Daily Weather History Graph

Daily Weather History Graph

Search for Another Location

Airport or City:

Trip Planner

Search our weather history database for the weather conditions in past years. The results will help you decide how hot, cold, wet, or windy it might be!

Date:

Astronomy

Nov. 05, 2012 Rise Set
Actual Time 6:54 AM MST 4:58 PM MST
Civil Twilight 6:24 AM MST 5:28 PM MST
Nautical Twilight 5:50 AM MST 6:02 PM MST
Astronomical Twilight 5:16 AM MST 6:35 PM MST
Moon 10:39 PM MST (11/5) 12:15 PM MST (11/5)
Length of Visible Light 11h 04m
Length of Day
10h 04m
Waning Gibbous, 62% of the Moon is Illuminated
Nov 5
Waning Gibbous
Nov 6
Last Quarter
Nov 13
New
Nov 20
First Quarter
Nov 28
Full

Hourly Weather History & Observations

Time (MST) Temp. Windchill Dew Point Humidity Pressure Visibility Wind Dir Wind Speed Gust Speed Precip Events Conditions
12:15 AM 37.4 °F 30.8 °F 28.4 °F 70% 30.43 in 10.0 mi SE 9.2 mph - N/A   Clear
12:35 AM 37.4 °F 29.8 °F 28.4 °F 70% 30.43 in 10.0 mi SE 11.5 mph - N/A   Clear
1:15 AM 37.4 °F 29.3 °F 28.4 °F 70% 30.42 in 10.0 mi SE 12.7 mph - N/A   Clear
1:35 AM 39.2 °F 32.0 °F 28.4 °F 65% 30.42 in 10.0 mi SE 11.5 mph - N/A   Clear
1:55 AM 39.2 °F 33.6 °F 28.4 °F 65% 30.42 in 10.0 mi SE 8.1 mph - N/A   Clear
2:15 AM 37.4 °F 30.3 °F 28.4 °F 70% 30.41 in 10.0 mi SE 10.4 mph - N/A   Clear
2:35 AM 39.2 °F 32.5 °F 30.2 °F 70% 30.41 in 10.0 mi SE 10.4 mph - N/A   Clear
2:55 AM 39.2 °F 32.0 °F 30.2 °F 70% 30.40 in 10.0 mi SE 11.5 mph - N/A   Clear
3:15 AM 41.0 °F 35.2 °F 30.2 °F 65% 30.39 in 10.0 mi ESE 9.2 mph - N/A   Clear
3:35 AM 41.0 °F 35.8 °F 30.2 °F 65% 30.38 in 10.0 mi SE 8.1 mph - N/A   Clear
4:15 AM 41.0 °F 38.0 °F 30.2 °F 65% 30.37 in 10.0 mi SSE 4.6 mph - N/A   Clear
4:35 AM 41.0 °F 35.2 °F 30.2 °F 65% 30.37 in 10.0 mi SE 9.2 mph - N/A   Clear
4:55 AM 41.0 °F 36.4 °F 30.2 °F 65% 30.37 in 10.0 mi SE 6.9 mph - N/A   Clear
5:15 AM 41.0 °F 39.0 °F 30.2 °F 65% 30.37 in 10.0 mi SSE 3.5 mph - N/A   Clear
5:35 AM 41.0 °F 37.1 °F 28.4 °F 61% 30.36 in 10.0 mi SE 5.8 mph - N/A   Clear
5:55 AM 41.0 °F 39.0 °F 28.4 °F 61% 30.36 in 10.0 mi SSE 3.5 mph - N/A   Clear
6:15 AM 41.0 °F 38.0 °F 28.4 °F 61% 30.36 in 10.0 mi SSE 4.6 mph - N/A   Clear
6:35 AM 41.0 °F 37.1 °F 28.4 °F 61% 30.35 in 10.0 mi SSE 5.8 mph - N/A   Clear
6:55 AM 39.2 °F 35.0 °F 30.2 °F 70% 30.34 in 10.0 mi SE 5.8 mph - N/A   Clear
7:15 AM 37.4 °F 30.8 °F 30.2 °F 75% 30.35 in 10.0 mi SE 9.2 mph - N/A   Clear
7:35 AM 37.4 °F 30.8 °F 30.2 °F 75% 30.36 in 10.0 mi SE 9.2 mph - N/A   Clear
7:55 AM 39.2 °F 35.9 °F 30.2 °F 70% 30.37 in 10.0 mi SE 4.6 mph - N/A   Clear
8:15 AM 42.8 °F 39.3 °F 28.4 °F 57% 30.38 in 10.0 mi South 5.8 mph - N/A   Clear
8:35 AM 44.6 °F 42.2 °F 28.4 °F 53% 30.38 in 10.0 mi SE 4.6 mph - N/A   Clear
9:15 AM 44.6 °F 40.7 °F 28.4 °F 53% 30.37 in 10.0 mi SE 6.9 mph - N/A   Clear
9:35 AM 41.0 °F 37.1 °F 28.4 °F 61% 30.37 in 10.0 mi SE 5.8 mph - N/A   Clear
9:55 AM 42.8 °F 39.3 °F 28.4 °F 57% 30.36 in 10.0 mi SSE 5.8 mph - N/A   Clear
10:15 AM 42.8 °F 39.3 °F 28.4 °F 57% 30.36 in 10.0 mi South 5.8 mph - N/A   Clear
10:35 AM 50.0 °F - 26.6 °F 40% 30.37 in 10.0 mi West 5.8 mph - N/A   Clear
11:15 AM 51.8 °F - 26.6 °F 38% 30.35 in 10.0 mi Calm Calm - N/A   Clear
11:35 AM 50.0 °F - 28.4 °F 43% 30.34 in 10.0 mi South 5.8 mph - N/A   Clear
12:15 PM 50.0 °F - 26.6 °F 40% 30.33 in 10.0 mi South 8.1 mph - N/A   Clear
12:35 PM 53.6 °F - 24.8 °F 33% 30.32 in 10.0 mi SSW 10.4 mph - N/A   Clear
12:55 PM 53.6 °F - 26.6 °F 35% 30.30 in 10.0 mi South 12.7 mph - N/A   Clear
1:15 PM 53.6 °F - 24.8 °F 33% 30.30 in 10.0 mi South 11.5 mph - N/A   Clear
1:35 PM 53.6 °F - 24.8 °F 33% 30.30 in 10.0 mi SSW 12.7 mph - N/A   Clear
1:55 PM 55.4 °F - 23.0 °F 29% 30.30 in 10.0 mi SSW 6.9 mph - N/A   Clear
2:15 PM 55.4 °F - 23.0 °F 29% 30.30 in 10.0 mi SW 5.8 mph - N/A   Clear
2:35 PM 55.4 °F - 21.2 °F 26% 30.29 in 10.0 mi Calm Calm - N/A   Clear
2:55 PM 55.4 °F - 26.6 °F 33% 30.29 in 10.0 mi SSW 6.9 mph - N/A   Clear
3:15 PM 55.4 °F - 24.8 °F 31% 30.30 in 10.0 mi West 8.1 mph - N/A   Clear
3:35 PM 53.6 °F - 26.6 °F 35% 30.30 in 10.0 mi WNW 6.9 mph - N/A   Clear
3:55 PM 51.8 °F - 26.6 °F 38% 30.30 in 10.0 mi Calm Calm - N/A   Clear
4:15 PM 51.8 °F - 28.4 °F 41% 30.30 in 10.0 mi Calm Calm - N/A   Clear
4:35 PM 50.0 °F - 28.4 °F 43% 30.30 in 10.0 mi Calm Calm - N/A   Clear
4:55 PM 51.8 °F - 26.6 °F 38% 30.31 in 10.0 mi NNW 5.8 mph - N/A   Clear
5:15 PM 50.0 °F - 26.6 °F 40% 30.31 in 10.0 mi North 9.2 mph - N/A   Clear
5:35 PM 51.8 °F - 26.6 °F 38% 30.32 in 10.0 mi North 8.1 mph - N/A   Clear
5:55 PM 51.8 °F - 23.0 °F 33% 30.33 in 10.0 mi North 10.4 mph - N/A   Clear
6:15 PM 50.0 °F - 26.6 °F 40% 30.34 in 10.0 mi NNW 10.4 mph - N/A   Clear
6:35 PM 50.0 °F - 26.6 °F 40% 30.34 in 10.0 mi North 6.9 mph - N/A   Clear
6:55 PM 51.8 °F - 23.0 °F 33% 30.34 in 10.0 mi NW 5.8 mph - N/A   Clear
7:15 PM 53.6 °F - 21.2 °F 28% 30.34 in 10.0 mi WNW 10.4 mph - N/A   Clear
7:35 PM 51.8 °F - 23.0 °F 33% 30.34 in 10.0 mi North 5.8 mph - N/A   Clear
8:15 PM 51.8 °F - 21.2 °F 30% 30.34 in 10.0 mi Calm Calm - N/A   Clear
8:35 PM 51.8 °F - 21.2 °F 30% 30.36 in 10.0 mi NNW 4.6 mph - N/A   Clear
8:55 PM 51.8 °F - 21.2 °F 30% 30.36 in 10.0 mi West 4.6 mph - N/A   Clear
9:15 PM 51.8 °F - 21.2 °F 30% 30.35 in 10.0 mi SW 6.9 mph - N/A   Clear
9:35 PM 51.8 °F - 21.2 °F 30% 30.36 in 10.0 mi West 10.4 mph - N/A   Clear
9:55 PM 50.0 °F - 21.2 °F 32% 30.34 in 10.0 mi West 12.7 mph - N/A   Clear
10:15 PM 50.0 °F - 21.2 °F 32% 30.34 in 10.0 mi West 16.1 mph - N/A   Clear
10:35 PM 50.0 °F - 19.4 °F 30% 30.34 in 10.0 mi West 17.3 mph 21.9 mph N/A   Clear
10:55 PM 50.0 °F - 19.4 °F 30% 30.34 in 10.0 mi West 15.0 mph 20.7 mph N/A   Clear
11:15 PM 50.0 °F - 19.4 °F 30% 30.34 in 10.0 mi West 16.1 mph - N/A   Clear
11:35 PM 50.0 °F - 19.4 °F 30% 30.34 in 10.0 mi West 15.0 mph - N/A   Clear
11:55 PM 50.0 °F - 19.4 °F 30% 30.34 in 10.0 mi WNW 20.7 mph - N/A   Clear